ECMWFFLT1_500_spd_000.txt.gz
Wind_Speed
17 15 14 13 12 12 14 16 15 14 13 13 12 12 12 12 12 13 13 14 15 15 15 15 15 15 15 16 16 17 18 18 19 19 20 20 20 19 20 20 21 21 20 20 21 21 21 20 20 20 21 21 21 21 21 21 21 22 24 25 27 27 27
19 17 16 15 13 14 15 17 16 14 13 13 12 12 12 12 12 12 13 14 14 14 14 14 14 14 15 15 15 16 17 18 19 20 20 21 21 21 21 21 21 22 20 20 21 22 21 20 20 20 21 22 22 22 21 20 20 20 21 21 22 23 25
20 18 17 16 14 14 16 17 16 14 13 12 12 11 11 11 12 12 13 13 13 13 13 13 13 13 14 14 15 16 17 17 18 19 20 22 22 22 22 22 21 21 21 20 21 22 21 20 20 21 21 22 23 23 23 22 21 20 19 19 19 20 21
20 19 18 17 14 13 15 16 16 14 12 12 11 11 10 11 11 11 11 11 11 12 12 12 12 12 12 13 14 14 15 16 17 18 19 20 21 21 21 21 20 20 20 20 20 21 20 19 19 20 21 22 22 23 24 23 23 22 21 20 20 20 20
19 19 18 17 14 12 13 15 16 14 12 11 10 9 9 9 10 10 10 10 10 10 10 10 10 10 10 11 12 12 13 14 15 16 17 18 19 19 19 19 18 18 18 19 19 19 19 18 19 19 20 20 21 22 23 24 23 23 24 23 22 22 21
17 19 17 16 14 11 12 13 15 14 12 10 9 8 8 9 9 9 9 9 9 9 9 8 8 8 9 9 10 11 12 13 14 15 15 16 17 17 17 16 16 16 16 16 16 16 17 17 18 18 18 19 20 20 21 22 22 23 23 23 23 22 22
16 18 16 14 13 11 11 13 14 14 11 8 7 7 8 9 9 9 9 9 9 9 8 8 7 7 7 8 9 9 10 11 12 13 14 14 14 15 14 14 13 13 12 11 11 12 12 13 15 15 16 16 17 18 18 19 20 20 21 21 21 21 22
16 18 16 14 13 13 12 13 14 13 11 7 6 7 8 8 9 9 9 9 9 8 8 8 7 7 7 8 8 9 9 10 11 12 13 13 13 13 12 12 11 10 10 9 8 8 9 9 10 11 12 13 13 14 15 16 16 17 17 17 18 18 19
18 18 16 15 14 15 14 13 13 13 11 8 6 7 7 8 9 9 9 9 8 8 8 8 8 8 8 8 8 9 9 10 11 12 12 13 13 13 12 11 11 10 9 8 8 7 7 7 7 8 8 9 10 11 12 12 13 13 14 15 15 16 17
19 17 15 15 15 15 15 14 13 12 12 10 9 8 8 8 9 10 10 10 10 10 10 10 10 9 9 9 9 9 10 10 11 12 12 13 13 13 13 12 11 11 10 9 9 8 8 7 7 7 7 8 8 9 9 10 10 10 12 13 13 13 14
20 19 18 16 16 16 17 15 14 13 13 12 11 10 9 9 10 10 11 11 12 12 12 12 12 12 12 11 11 11 11 11 11 12 13 14 14 13 13 12 12 11 11 10 10 10 9 9 9 9 9 9 9 9 9 9 8 8 9 10 10 10 12
19 19 18 17 18 19 19 18 17 15 14 13 12 11 9 9 10 11 12 13 13 14 13 13 13 14 14 14 13 12 12 12 12 12 13 14 15 15 14 14 13 12 12 11 11 11 11 10 10 10 10 10 10 10 10 10 10 9 10 10 10 9 10
18 18 18 18 19 19 19 18 18 17 15 14 13 12 11 10 10 11 13 14 14 14 13 12 12 13 14 15 15 15 14 13 12 12 13 14 15 16 16 15 15 14 13 12 11 11 12 11 11 11 12 12 12 12 12 12 12 12 12 12 12 12 12
20 21 20 20 19 19 20 19 18 17 17 16 15 14 14 13 12 12 13 14 15 14 13 12 12 12 13 14 16 17 16 15 14 14 14 14 15 15 16 16 16 15 14 13 12 12 12 12 13 13 13 13 14 14 14 15 15 15 14 15 15 15 15
24 24 22 21 21 21 21 21 20 18 18 17 17 18 18 16 15 14 14 14 14 14 14 14 14 14 14 15 16 17 17 17 16 16 16 16 16 16 16 16 16 15 15 14 14 13 12 12 13 13 14 14 15 15 16 16 17 18 18 17 18 18 19
26 26 25 24 24 23 22 22 21 19 19 18 18 20 20 20 18 17 16 16 16 16 16 17 17 18 17 17 17 17 18 18 19 19 19 19 18 18 17 17 16 16 16 15 15 14 13 13 13 13 14 14 15 15 16 17 18 19 20 20 20 20 21
26 26 26 26 25 24 22 22 22 21 20 20 21 21 22 22 21 20 20 20 21 21 21 21 21 21 21 20 20 19 19 20 21 21 21 21 22 21 20 20 20 19 18 17 17 16 16 15 15 15 15 15 16 17 17 18 19 19 21 22 23 23 23
26 26 26 26 27 26 25 24 25 25 24 24 25 25 24 24 24 23 23 24 25 26 26 25 24 24 26 26 25 24 23 23 23 23 24 24 24 24 24 23 23 23 22 21 20 19 18 18 18 17 17 17 18 19 19 20 21 21 22 23 24 25 25
27 27 25 26 28 30 29 27 25 26 27 27 27 27 27 27 27 27 27 27 28 29 29 28 27 28 30 31 32 32 31 28 26 25 25 25 25 26 27 26 25 24 24 23 22 21 21 21 20 20 20 20 21 22 22 22 23 23 24 25 26 27 27
29 28 26 25 26 27 27 26 25 26 27 28 28 28 27 27 28 28 29 29 29 30 31 32 32 32 32 31 31 30 28 26 25 24 25 26 26 28 29 29 28 27 27 26 26 25 25 24 23 22 22 23 24 24 24 24 24 24 25 26 27 28 29
25 27 27 26 26 27 28 29 29 29 27 27 28 28 27 26 26 27 29 30 30 31 33 35 35 34 33 31 28 27 26 26 26 25 25 24 25 28 30 30 31 31 31 31 31 30 29 28 27 26 26 27 26 25 25 26 26 26 27 27 28 30 31
26 27 30 29 26 25 27 29 31 31 28 25 26 27 29 29 30 31 32 32 33 34 36 37 38 37 35 34 32 32 31 30 29 29 28 27 27 28 30 32 33 33 34 34 35 34 34 32 32 31 31 30 29 28 29 29 30 30 31 31 32 33 33
31 28 31 33 30 29 29 29 30 31 31 29 30 31 32 33 35 36 36 37 37 38 39 39 40 39 38 37 36 35 34 33 32 33 33 33 33 32 32 33 34 35 36 37 38 38 37 36 36 35 35 34 33 33 34 34 35 35 36 36 36 37 36
33 33 35 36 36 37 37 35 35 35 37 38 39 38 38 38 39 40 40 38 37 37 39 40 41 41 40 39 39 38 37 36 36 36 36 36 37 37 37 37 37 37 38 39 40 40 40 40 39 39 38 37 37 39 40 41 41 40 40 39 39 39 39
35 37 39 39 40 41 40 40 40 40 41 43 44 43 43 42 42 42 41 41 39 40 41 43 44 45 44 43 43 42 40 39 38 38 38 38 39 39 39 38 38 38 38 41 42 41 41 42 42 42 43 43 45 46 46 46 45 43 42 41 40 40 41
38 39 39 39 40 41 41 41 42 43 44 45 45 45 44 44 44 44 44 45 45 46 46 46 47 48 48 46 46 45 43 41 41 41 41 41 41 41 41 40 39 38 38 41 43 40 40 43 44 46 47 48 49 48 48 47 46 45 43 42 42 42 43
40 39 38 37 38 39 40 41 43 44 45 46 45 45 45 45 44 44 45 47 48 49 49 49 49 49 48 46 44 44 45 44 44 45 45 44 44 46 46 44 42 41 41 43 43 42 42 44 45 46 47 48 48 47 47 46 46 46 45 45 45 45 45
39 39 38 38 39 40 41 42 44 46 46 47 47 47 47 48 47 46 45 46 47 47 48 48 47 48 48 48 47 47 48 48 49 49 49 48 47 48 48 47 45 44 45 47 48 46 45 45 45 46 47 47 47 47 47 46 46 47 47 47 47 47 47
40 40 40 41 42 43 44 45 47 48 49 50 51 52 52 51 50 49 48 46 46 46 46 46 46 47 47 48 49 50 51 51 51 51 51 50 50 50 50 50 50 49 50 51 51 49 48 47 47 48 49 48 48 48 48 48 48 48 48 48 48 48 48
43 43 44 45 46 47 49 49 50 51 52 53 54 54 54 53 53 52 50 49 48 47 46 47 47 47 47 47 48 49 49 50 50 50 50 50 50 50 50 51 51 51 52 53 53 52 51 50 50 50 50 50 50 50 50 50 50 50 50 49 48 48 48
49 49 50 50 51 51 52 52 52 53 53 54 54 54 54 53 53 52 52 51 50 49 48 48 48 48 48 47 47 48 48 49 49 50 50 50 50 50 49 50 50 50 51 52 52 52 52 51 51 52 51 51 51 51 51 50 50 50 49 49 49 49 49
53 53 53 53 53 53 52 53 53 54 55 55 55 54 53 53 53 53 53 52 52 52 51 51 50 50 49 49 49 50 50 50 51 51 51 52 52 51 51 51 50 50 50 50 50 51 51 51 52 52 51 51 50 50 49 49 49 49 48 48 48 49 50
54 53 52 52 52 52 52 53 54 55 56 56 56 55 53 53 53 54 54 54 54 54 53 53 53 52 52 52 52 51 51 50 50 50 50 50 51 51 51 51 51 51 50 49 49 50 51 51 51 51 50 50 49 49 49 49 49 49 48 48 49 50 51
57 55 53 53 53 54 54 54 54 55 56 56 56 55 54 53 53 54 55 54 54 54 53 53 53 52 52 51 50 49 48 47 47 47 47 47 47 48 49 49 49 49 49 49 49 50 51 51 51 50 50 49 49 50 50 50 50 50 50 50 51 52 53
62 61 59 58 58 58 57 56 55 54 54 54 54 54 54 53 53 53 54 54 53 52 51 50 50 49 48 48 47 46 45 45 44 44 44 45 45 46 47 47 47 48 49 49 50 50 50 50 50 50 50 50 51 51 51 50 50 51 51 52 53 54 55
65 65 64 64 62 61 60 59 58 56 53 51 51 52 52 52 51 51 52 52 52 50 49 49 48 48 47 46 45 45 44 44 43 43 43 43 44 44 45 46 47 48 48 49 49 49 49 49 50 50 50 50 51 50 50 50 50 51 52 53 54 54 55
66 68 68 68 67 65 63 61 60 57 54 52 50 49 48 48 49 49 50 51 51 50 49 49 48 48 47 46 45 44 44 43 43 42 42 42 43 44 45 46 46 47 47 48 48 48 48 49 49 50 50 49 49 49 49 49 50 51 51 52 52 53 53

ECMWFFLT1_500_spd_003.txt.gz
Wind_Speed
17 19 19 17 16 16 16 15 14 12 11 12 13 13 13 13 13 13 13 14 14 14 14 15 15 16 17 17 18 19 20 21 22 22 22 23 23 23 24 25 24 24 22 23 24 24 24 24 24 25 25 24 24 25 25 27 28 28 26 26 27 27 27
22 23 21 18 17 17 15 15 14 13 12 12 13 13 13 12 12 12 13 13 14 14 14 15 15 16 16 16 17 18 18 19 20 21 21 22 23 24 25 24 24 24 24 24 25 24 24 24 25 25 25 24 24 24 24 26 27 26 25 25 26 26 27
23 22 20 18 18 17 15 14 14 13 12 12 13 13 12 12 11 11 11 12 13 13 14 14 15 15 15 15 16 17 17 18 19 19 20 21 22 23 24 24 24 24 25 25 25 25 25 25 25 26 26 25 24 23 23 24 25 25 25 25 25 25 27
21 20 18 17 17 17 14 13 13 12 11 12 13 13 12 12 11 10 10 10 11 11 12 12 13 13 13 14 14 15 15 16 17 18 19 20 21 22 23 23 23 24 24 25 25 25 25 25 26 26 25 24 23 23 23 23 24 25 26 26 25 25 25
19 19 16 15 16 15 13 12 12 11 10 11 13 13 12 12 11 10 9 9 9 10 10 10 10 11 11 12 13 13 14 15 15 16 17 18 19 20 21 21 22 21 21 22 22 23 23 23 24 24 24 23 23 22 23 23 24 25 27 27 27 26 26
18 17 15 14 13 13 12 11 12 11 10 10 11 13 12 11 10 10 9 9 9 9 9 9 9 9 10 11 11 12 13 14 14 15 15 16 17 18 19 19 19 19 19 19 19 20 20 21 21 21 21 22 22 21 21 22 23 24 25 26 27 28 28
17 15 13 12 13 13 12 11 11 11 10 9 10 12 12 11 10 9 9 9 9 10 9 9 9 9 9 9 10 11 12 12 13 13 14 14 15 16 16 16 17 16 16 17 17 17 17 18 18 18 19 19 20 19 19 20 22 22 23 24 25 27 28
16 15 14 14 15 14 13 11 11 11 11 10 10 11 11 10 9 8 8 8 8 9 9 9 9 9 9 9 9 10 10 11 11 11 12 12 13 13 14 14 14 14 14 14 15 15 15 15 16 16 16 16 16 17 17 17 18 19 19 20 21 23 25
17 15 15 15 16 15 14 12 11 11 11 10 10 11 11 10 8 7 7 7 7 7 8 8 9 9 9 9 9 9 10 10 11 11 11 11 12 12 12 12 12 13 13 13 14 14 14 14 14 14 14 14 13 13 13 14 15 15 15 15 16 18 19
20 15 14 15 16 16 15 14 12 11 11 11 10 10 10 9 9 8 8 8 8 8 9 9 9 9 9 9 10 10 10 11 11 11 12 11 12 11 11 11 12 12 12 13 13 14 14 14 13 13 13 13 12 11 11 11 11 12 12 12 13 13 15
23 15 14 16 16 16 16 16 14 12 12 12 11 11 10 10 10 10 10 10 10 11 11 11 11 11 11 11 11 11 11 11 12 12 12 12 12 12 12 11 12 12 12 12 12 13 13 13 13 13 13 13 12 12 11 11 11 11 11 11 11 11 12
21 15 14 15 13 14 15 16 16 15 14 13 13 13 12 12 12 12 12 12 12 12 13 13 13 13 13 13 13 12 12 12 12 12 13 13 13 14 14 13 13 13 13 12 12 12 13 13 13 13 13 13 13 13 12 12 12 12 12 11 11 11 11
15 13 12 12 13 14 15 16 17 17 15 14 14 15 15 14 14 13 13 14 14 14 13 13 12 12 12 12 12 12 12 13 13 13 13 13 14 14 15 15 15 15 15 14 14 14 14 14 14 14 14 14 14 14 14 13 13 13 13 13 13 13 13
15 13 12 13 15 16 16 16 17 17 17 16 16 16 17 16 15 14 14 13 13 13 13 12 11 10 10 10 10 11 12 13 13 14 14 13 14 14 15 15 16 16 16 15 15 14 14 13 13 13 14 14 14 14 14 14 14 14 14 14 15 15 15
16 17 17 18 19 19 18 18 18 18 19 20 19 18 18 17 16 16 15 15 14 14 14 13 13 12 11 10 11 11 11 12 13 14 14 14 15 15 15 16 17 17 17 16 15 14 13 12 11 11 11 11 12 12 13 13 14 14 14 15 16 17 18
18 19 20 19 19 18 17 17 18 19 22 22 21 21 20 20 19 17 16 16 15 15 15 16 16 15 15 15 15 14 13 13 14 15 15 16 17 18 18 18 19 19 19 18 17 15 14 14 13 13 12 12 12 12 12 13 14 15 15 16 16 17 18
21 19 18 17 17 17 17 18 19 21 23 23 23 23 22 21 21 19 18 18 18 18 17 18 18 18 18 18 18 17 16 16 17 18 19 20 20 20 21 21 21 21 22 21 20 20 19 18 17 17 16 15 15 14 14 14 15 15 16 17 18 18 18
21 18 18 18 18 19 19 20 20 22 23 24 24 25 24 23 22 21 21 21 21 20 20 21 21 20 20 20 20 20 19 19 20 21 23 25 25 25 24 24 24 24 24 25 24 24 24 24 23 22 20 19 18 18 18 17 17 17 18 19 20 20 20
20 20 19 19 19 20 21 21 21 22 24 25 27 27 26 26 25 24 25 25 23 23 24 25 24 24 24 24 23 23 23 23 22 22 23 24 24 23 23 23 23 24 24 25 26 27 27 27 27 26 25 23 23 22 22 21 20 20 20 21 21 21 21
20 19 19 19 19 20 22 23 22 22 23 26 29 29 27 26 27 27 27 27 27 27 27 27 26 26 26 26 26 26 26 26 26 25 23 22 20 20 21 22 24 25 24 24 25 26 27 28 29 29 28 27 27 27 26 25 24 24 23 22 22 22 22
18 18 20 20 18 18 20 22 23 22 22 25 28 30 29 26 26 28 27 28 29 29 29 28 26 25 25 26 27 28 28 28 29 28 27 26 25 25 25 25 26 26 26 26 25 26 27 29 30 30 30 31 31 31 31 31 30 29 27 26 25 25 25
20 21 21 19 18 20 21 23 25 24 24 26 27 30 31 26 25 26 26 24 24 23 24 26 26 27 28 28 30 31 32 31 31 31 32 31 31 30 30 30 29 29 29 29 29 29 30 31 32 33 34 35 36 37 37 36 36 35 34 32 32 31 31
25 26 24 22 23 25 26 27 28 27 28 30 29 29 30 28 27 28 27 25 24 23 24 26 28 30 31 32 33 34 34 33 32 32 33 33 33 33 33 33 33 33 34 33 33 33 34 35 36 37 38 38 40 41 41 41 40 40 39 38 38 38 38
30 32 32 30 30 32 31 30 30 29 30 31 31 29 30 30 31 32 31 29 29 29 30 31 32 33 33 34 35 35 35 35 35 35 35 35 36 36 37 37 37 37 37 37 37 38 38 38 39 40 40 40 41 43 44 44 44 44 43 43 43 43 43
31 32 34 34 34 36 35 33 33 33 34 36 36 35 35 35 35 34 33 32 33 33 33 33 34 35 36 37 37 38 38 39 40 41 41 41 41 40 41 41 41 40 40 39 40 40 39 40 41 41 40 40 41 42 44 44 45 45 45 45 46 46 46
34 34 35 36 36 37 37 37 36 36 37 40 41 42 42 42 39 37 37 37 36 35 34 34 35 36 38 39 39 40 41 42 43 44 45 46 45 43 43 43 43 42 41 41 41 40 39 42 44 44 43 43 43 44 45 45 45 45 45 45 46 47 47
36 36 35 35 35 36 38 38 38 39 40 41 42 42 42 41 40 39 40 39 38 37 37 38 39 40 41 42 42 42 43 44 45 46 47 47 47 46 45 45 45 45 44 44 44 43 43 43 45 46 45 45 45 45 46 46 47 48 48 49 49 49 49
39 38 37 36 36 36 37 38 39 39 40 41 42 42 42 41 41 41 40 40 39 40 41 42 43 44 45 44 44 44 44 44 45 45 46 47 48 48 47 48 48 48 48 48 48 48 47 45 44 46 47 47 47 48 48 48 50 51 51 52 52 51 50
42 41 41 41 40 40 40 40 41 41 41 41 41 41 40 41 41 42 42 42 42 43 44 45 46 47 47 46 45 45 45 45 46 46 47 47 48 49 49 49 49 49 49 49 48 48 49 49 50 52 53 53 54 53 53 53 54 54 53 53 53 52 52
44 44 45 45 45 44 44 44 44 44 44 42 42 41 41 42 43 45 46 46 45 45 46 47 48 48 48 47 46 46 46 47 47 48 48 49 49 50 50 51 51 50 49 49 49 49 49 51 53 54 55 55 56 55 56 56 56 56 55 54 54 54 55
46 48 48 48 48 47 47 47 47 47 46 46 45 45 46 47 48 48 49 48 48 47 48 48 49 50 50 50 49 49 48 48 48 48 48 49 49 50 51 51 52 52 52 52 52 52 52 53 54 55 56 56 56 56 57 57 56 56 55 55 56 56 57
50 50 50 48 48 48 48 48 49 49 49 49 50 50 51 50 50 50 51 50 48 48 49 50 50 50 51 52 52 52 51 50 49 49 49 49 49 50 50 51 52 52 53 54 54 54 54 54 55 56 56 56 56 56 56 56 56 56 56 56 56 57 57
48 47 46 45 45 46 46 47 48 50 52 52 53 53 53 51 50 50 50 49 49 51 52 52 52 52 52 52 53 53 52 51 50 50 49 49 49 49 50 50 50 51 51 51 51 51 52 52 53 53 54 54 55 55 55 56 56 56 56 56 56 57 57
47 46 46 46 47 47 47 48 49 51 52 53 54 53 52 51 50 50 50 51 53 55 55 54 53 53 52 53 53 53 52 51 50 49 49 49 49 48 48 48 48 48 48 48 48 48 48 48 49 50 51 52 53 54 54 55 55 56 56 56 56 56 57
51 50 49 49 49 49 49 49 51 51 52 53 54 54 53 53 53 52 53 55 56 57 57 56 54 53 53 53 52 52 52 51 49 49 48 48 48 48 47 48 48 48 47 47 47 47 47 47 47 48 49 50 51 52 53 53 54 55 55 55 56 56 57
54 54 53 53 52 51 51 51 52 52 52 53 54 55 56 55 55 55 56 58 60 61 60 59 56 55 54 53 52 52 51 50 49 48 48 47 47 47 47 47 47 47 47 47 47 47 47 47 47 48 48 49 50 51 51 52 52 53 54 55 55 56 56
55 53 51 52 53 53 52 52 52 52 51 51 52 54 55 55 56 57 59 61 63 63 62 60 58 56 55 54 54 53 52 50 49 48 48 47 47 46 47 47 47 47 47 46 46 47 47 47 47 47 47 47 48 49 50 50 51 52 53 53 54 55 55

ECMWFFLT1_500_spd_006.txt.gz
Wind_Speed
15 16 18 17 16 17 16 14 12 13 14 15 15 15 15 15 15 15 14 14 13 13 14 14 15 16 17 18 19 20 21 22 23 24 24 25 26 26 27 27 25 23 22 22 22 22 22 22 22 22 22 24 25 25 26 26 26 26 28 29 30 30 30
16 17 19 19 20 20 18 15 13 12 13 14 15 15 15 16 16 16 16 16 15 15 16 16 17 17 18 18 18 19 20 21 22 22 23 24 25 25 26 27 26 25 25 25 24 24 24 24 24 24 24 26 26 26 27 27 26 26 26 27 28 30 31
19 20 22 22 21 21 18 15 14 13 13 14 14 15 15 15 16 17 18 18 18 18 17 17 17 17 17 18 18 18 19 19 20 21 21 22 23 24 25 26 26 26 26 25 24 24 24 25 26 25 25 26 27 27 27 27 26 26 26 26 27 28 29
19 21 23 22 21 20 17 15 15 15 14 14 14 15 14 15 16 17 18 18 18 18 17 17 17 17 17 17 17 17 18 18 19 19 19 20 21 22 23 24 24 24 25 24 23 23 23 24 25 25 25 25 25 27 27 27 26 26 26 26 26 26 28
20 21 22 22 21 19 16 15 16 15 15 14 14 14 14 15 16 17 17 17 17 17 16 16 16 15 15 15 15 16 16 16 16 17 17 18 19 20 20 21 22 23 23 23 23 23 23 23 24 24 24 24 24 25 26 26 26 26 26 25 25 26 27
21 21 21 21 22 19 14 13 14 13 13 13 13 14 14 14 15 16 16 16 15 15 15 14 14 14 14 14 14 14 14 14 14 14 15 15 16 17 18 20 21 21 22 22 22 22 22 22 22 22 22 23 23 23 24 24 24 25 25 24 24 25 26
22 21 21 22 23 19 13 13 14 12 11 11 12 13 13 14 15 15 16 15 14 13 13 13 13 13 13 13 13 13 13 12 12 12 12 12 13 14 15 16 17 18 19 19 19 19 19 19 19 20 20 20 21 21 21 22 22 23 23 23 23 23 25
24 22 21 22 24 21 15 14 14 13 11 11 11 12 12 13 14 15 15 15 14 14 13 13 13 12 12 12 12 12 12 12 12 11 11 11 10 11 11 12 13 14 14 14 15 15 16 16 16 17 16 17 17 17 18 19 20 20 20 21 21 21 22
28 27 25 24 25 24 19 15 14 12 11 11 11 11 11 12 12 13 14 14 13 13 13 13 13 13 13 12 12 12 12 12 12 12 11 10 9 9 9 9 10 10 11 11 12 13 14 15 15 15 14 14 14 14 14 16 16 16 16 17 17 18 18
29 29 27 24 25 24 21 16 14 13 12 11 11 11 11 11 11 11 12 12 12 12 12 12 12 12 12 12 12 12 13 13 13 13 12 11 10 9 8 8 8 9 9 10 11 11 12 13 13 14 14 13 13 12 12 12 12 12 12 13 13 13 13
22 23 23 23 23 22 21 18 15 15 14 12 11 11 12 12 12 12 12 12 12 12 12 12 12 11 11 11 12 12 12 13 13 13 13 12 11 10 9 8 8 8 9 10 11 11 11 11 12 12 12 12 12 11 11 11 10 10 10 10 9 9 10
11 13 14 18 20 19 19 19 17 15 15 14 13 13 13 14 14 13 13 13 13 13 13 13 13 13 13 13 13 13 14 14 14 14 14 13 12 11 10 9 9 8 9 9 11 12 12 12 12 12 12 12 12 11 11 10 10 10 10 10 9 8 9
13 12 10 11 13 15 17 20 19 15 14 14 14 14 15 15 15 15 15 15 15 15 15 15 15 15 15 14 14 15 15 15 15 15 15 14 13 12 11 11 10 9 9 9 10 11 12 13 13 13 13 13 13 13 12 12 11 11 11 11 11 10 10
12 10 8 8 10 13 17 20 21 18 16 15 15 15 16 17 17 17 16 16 16 16 16 16 15 15 14 14 14 14 13 14 14 14 14 13 13 12 11 11 11 11 11 10 10 10 10 11 12 13 14 14 14 14 14 14 14 13 13 13 13 12 12
10 8 5 7 11 15 17 20 21 21 20 19 17 17 17 17 17 17 17 17 17 17 17 17 16 15 15 14 14 13 12 12 12 13 13 12 11 10 10 10 11 12 12 12 12 11 11 11 12 12 13 13 14 14 14 15 15 15 15 15 15 15 14
11 10 9 10 13 16 18 19 19 21 22 20 18 18 17 17 18 18 18 18 18 19 19 19 18 17 16 16 15 14 12 12 11 12 12 11 10 9 10 12 13 14 15 15 15 15 14 13 14 14 14 14 14 15 16 17 17 17 17 17 17 17 16
12 14 14 13 14 17 19 18 17 19 20 19 18 19 18 17 18 19 19 18 19 20 21 20 19 19 18 17 17 16 15 14 13 13 13 12 12 12 13 14 16 17 18 18 18 18 17 17 17 18 18 18 18 19 19 20 20 20 20 20 19 19 19
14 16 15 14 16 19 20 19 18 19 20 20 20 20 20 19 19 21 21 20 20 21 22 21 20 20 19 19 18 18 17 17 16 16 15 16 16 16 16 16 16 17 19 19 19 19 19 19 20 21 22 23 23 23 24 24 24 23 23 23 22 22 21
15 15 15 15 17 19 20 20 20 20 20 22 22 21 21 20 22 23 23 21 22 24 24 23 22 22 23 23 21 21 20 20 20 20 19 19 20 19 18 17 16 16 17 18 19 19 19 20 21 22 23 24 26 27 27 28 28 27 27 27 26 26 24
17 16 17 17 17 19 21 20 20 21 23 23 23 22 21 22 24 26 25 24 24 26 25 25 25 25 25 24 24 24 24 23 23 23 23 23 23 22 21 19 19 19 19 19 20 21 21 22 23 24 25 25 25 26 28 29 30 30 30 30 30 30 29
21 22 22 20 17 18 20 19 19 21 22 22 22 22 21 23 24 26 28 28 27 27 29 29 30 29 29 28 27 26 24 23 23 23 24 24 24 24 24 23 23 24 25 26 26 26 27 28 29 29 29 29 28 28 29 29 30 31 32 33 33 33 34
22 22 22 20 18 17 19 20 20 21 21 21 21 22 23 25 27 29 30 30 30 31 33 32 30 30 29 29 28 26 24 24 23 24 25 26 27 28 28 27 27 28 29 30 31 32 32 32 33 33 33 33 33 34 33 33 34 34 35 36 37 37 38
22 20 19 20 20 19 21 23 23 23 23 23 21 22 24 29 32 31 29 30 33 36 34 28 24 23 23 23 23 23 24 25 25 26 27 28 30 31 31 31 31 31 32 32 33 34 34 34 35 36 35 36 37 38 38 38 40 40 41 41 42 42 42
26 25 24 26 27 26 27 29 29 28 29 28 26 26 27 30 32 31 31 32 32 33 31 25 22 22 22 23 23 24 25 26 27 29 30 31 33 34 35 36 36 37 37 37 37 37 37 37 38 39 39 40 41 42 42 43 44 45 45 45 45 45 45
32 31 29 28 30 31 32 33 33 32 33 33 31 30 31 33 34 34 35 36 34 33 33 32 31 29 28 28 28 27 27 28 29 31 32 34 35 37 38 39 40 41 42 43 43 43 43 43 43 44 44 45 45 46 46 47 47 46 46 46 47 47 47
35 35 32 28 29 31 33 33 33 34 34 33 32 31 32 35 37 37 38 38 39 40 40 40 39 37 34 32 31 30 30 31 32 33 34 35 37 38 40 41 42 42 43 44 45 45 46 46 46 46 46 46 47 47 48 48 48 47 45 46 48 49 49
36 36 36 34 33 34 34 34 33 34 33 32 33 33 34 35 37 39 40 41 41 41 40 39 39 38 36 34 33 33 33 33 34 35 36 37 38 39 40 40 41 42 43 44 45 46 47 47 47 47 47 47 47 48 49 49 49 48 48 48 49 50 50
39 39 39 38 37 37 38 38 38 38 36 35 35 35 34 34 36 37 38 39 39 40 39 38 36 35 35 35 36 36 36 36 37 37 37 37 38 38 39 39 40 41 43 44 45 46 47 48 48 48 49 49 49 49 50 50 50 50 50 50 50 52 52
42 42 41 40 40 40 41 42 43 42 41 39 38 37 36 36 37 37 37 38 38 40 40 39 37 36 36 37 38 39 40 40 40 39 38 38 38 38 39 40 40 41 43 44 45 47 47 48 49 49 50 50 51 52 52 52 51 51 51 51 52 54 55
43 42 42 42 41 41 42 42 43 44 43 42 42 41 40 40 39 39 39 39 39 41 42 41 41 40 40 41 41 41 41 41 41 41 40 39 39 40 40 41 41 42 43 44 45 46 47 48 49 50 51 51 52 52 52 53 53 52 52 51 52 53 55
41 42 42 41 40 41 42 43 44 44 44 45 45 45 44 43 43 43 42 42 42 43 44 44 44 44 44 43 42 41 40 41 41 41 41 41 42 42 43 43 44 44 44 45 45 46 47 48 48 49 50 50 51 51 51 51 51 51 51 51 52 52 53
40 40 41 40 40 40 41 42 44 45 45 46 47 48 47 46 45 45 44 44 44 45 45 46 46 46 45 43 42 41 41 41 42 43 44 45 46 46 46 46 46 47 47 47 47 47 47 47 48 48 48 48 48 48 48 48 49 49 50 51 51 52 52
42 42 42 41 41 41 41 42 44 44 45 48 49 50 49 48 47 46 45 44 44 44 45 45 45 45 44 43 42 42 42 43 43 45 46 47 48 48 48 47 48 48 48 48 48 48 48 48 48 47 47 47 47 47 47 47 48 49 49 50 50 51 52
47 46 44 43 43 43 43 44 44 43 44 46 47 46 47 48 47 45 45 44 44 44 44 44 44 45 45 45 45 45 46 46 46 47 48 49 50 50 50 49 49 49 49 49 48 48 48 48 48 47 47 47 47 47 47 47 47 48 48 49 50 51 52
54 53 51 49 47 47 46 45 45 45 46 47 47 46 48 49 49 48 47 47 47 47 46 45 44 45 46 47 48 49 49 49 49 49 51 51 52 52 51 50 50 50 50 49 48 48 48 48 47 47 46 46 47 47 47 47 47 47 48 48 49 50 51
59 58 57 55 53 52 51 49 47 47 48 48 48 48 49 50 49 49 49 49 49 48 48 48 48 48 48 48 48 49 50 51 52 53 53 53 54 54 53 52 50 50 50 50 49 48 47 47 46 46 45 45 46 46 46 46 46 47 48 48 49 49 50
60 60 59 57 55 54 54 54 53 52 51 50 48 48 50 50 50 51 51 51 51 51 51 51 50 49 48 48 49 51 53 54 55 55 55 56 56 55 54 53 51 51 51 51 49 47 46 46 45 45 45 45 45 45 45 46 46 47 47 48 48 49 49

ECMWFFLT1_500_spd_009.txt.gz
Wind_Speed
12 11 10 9 9 10 13 15 16 16 16 14 12 11 11 12 13 14 15 17 17 17 17 17 18 19 20 20 21 21 22 22 23 23 23 23 23 24 24 24 23 23 23 22 23 23 21 20 21 22 22 23 23 23 23 23 24 24 24 24 24 25 26
12 11 11 12 12 12 13 15 15 15 15 14 13 12 12 13 14 15 17 18 19 19 19 19 20 20 21 21 21 22 22 22 23 23 23 23 23 23 23 23 23 22 22 22 22 22 22 22 23 23 24 24 24 24 25 25 25 25 25 24 25 26 27
13 13 14 16 15 14 14 14 13 13 13 13 13 13 13 14 15 16 17 18 19 19 20 21 21 21 22 22 22 23 23 23 23 23 23 23 23 23 22 22 21 21 20 20 21 21 22 22 22 22 22 24 24 25 25 26 26 26 26 25 25 26 26
15 15 16 18 18 16 14 13 12 12 13 14 14 15 15 15 15 16 16 17 18 19 20 21 22 22 23 23 24 24 24 24 23 23 22 22 22 21 21 20 19 19 18 18 18 19 19 20 20 20 21 22 23 24 25 25 25 26 26 26 25 25 26
16 16 16 17 19 19 17 14 12 12 13 14 14 15 15 16 16 16 16 17 17 18 19 20 22 23 24 24 25 25 25 24 23 22 21 20 19 19 18 17 17 16 15 15 15 16 16 16 17 18 19 20 21 23 23 23 24 25 25 25 25 25 25
19 18 18 17 18 21 19 14 12 12 13 14 14 14 15 15 15 15 15 16 16 17 19 20 21 22 23 24 24 25 25 24 23 22 20 18 17 16 15 15 14 13 13 13 13 13 13 13 14 15 16 17 18 19 20 20 20 21 23 23 24 24 24
21 21 21 20 20 21 22 17 14 13 13 13 14 14 15 15 15 15 15 15 16 17 18 19 20 21 22 23 23 24 24 23 23 22 20 19 17 16 15 14 13 12 11 10 10 10 10 10 10 11 12 12 13 14 15 15 15 17 18 20 20 21 22
21 22 24 25 24 23 24 20 16 16 15 15 15 15 15 15 15 15 15 15 15 16 18 19 20 21 22 22 23 23 23 22 22 21 20 18 17 16 15 14 13 12 11 10 9 8 9 9 8 9 9 9 9 10 11 11 11 12 13 14 15 16 17
20 22 24 26 26 25 25 23 20 19 18 17 16 16 16 16 15 15 15 15 15 16 17 18 19 20 21 21 21 21 21 21 20 20 19 18 17 16 15 14 14 13 12 11 10 10 9 9 9 9 9 9 9 9 9 10 10 10 10 11 11 11 12
21 22 23 27 30 27 26 26 25 22 20 18 16 16 17 16 16 15 15 14 14 15 15 16 17 18 18 19 19 19 19 19 19 18 18 18 17 16 16 15 15 14 13 13 12 11 10 9 9 9 9 9 9 9 10 10 10 10 10 10 10 9 9
19 19 18 21 24 24 25 28 28 25 22 18 16 17 17 16 16 15 15 14 14 14 14 15 16 16 17 17 17 17 17 17 17 17 17 17 17 17 16 16 15 14 14 13 13 12 11 10 9 9 9 9 9 9 9 10 11 11 11 11 11 11 10
16 14 13 14 13 16 22 26 28 26 21 18 18 19 19 18 17 16 15 15 15 15 15 16 16 16 17 17 17 17 17 17 17 17 17 17 17 17 17 16 16 15 14 13 13 13 13 12 11 11 10 10 10 10 10 10 10 11 11 11 12 12 11
18 15 13 11 10 11 15 18 19 19 18 17 18 20 20 19 18 18 17 17 17 17 17 18 18 18 18 18 18 19 18 18 18 18 18 18 18 18 18 17 16 15 14 14 13 13 13 13 13 12 12 11 11 10 11 10 11 11 12 12 12 13 13
21 19 16 14 12 11 11 13 15 15 16 17 17 18 19 19 19 19 19 19 19 19 18 18 18 19 19 19 20 20 19 19 19 18 18 18 17 17 17 16 15 14 14 13 13 13 13 14 14 14 14 13 13 12 11 11 11 11 12 12 13 14 14
20 20 18 16 13 10 11 14 15 16 17 17 17 18 18 19 19 20 20 20 20 20 18 18 17 18 18 18 19 19 19 19 18 18 17 17 16 16 15 15 14 13 13 13 12 13 13 14 15 15 15 15 15 15 14 13 13 12 12 13 14 14 15
20 19 17 15 12 11 12 14 15 17 18 19 19 20 19 19 20 21 21 21 20 20 19 18 17 17 17 17 18 18 18 17 17 17 17 16 15 15 14 14 14 13 13 13 12 12 13 14 15 15 16 16 16 17 17 17 16 15 15 15 15 16 16
19 18 17 16 14 14 14 15 17 17 18 19 20 21 20 19 20 21 22 21 20 20 20 19 18 19 19 19 19 18 18 18 18 18 18 17 16 15 15 15 15 14 14 13 13 13 14 15 16 16 15 15 16 17 18 19 19 19 20 20 19 19 19
19 17 17 18 17 16 16 17 19 19 20 21 21 21 20 19 18 19 21 21 21 20 20 19 20 21 22 21 21 20 20 19 19 20 20 20 19 18 18 18 18 17 16 15 14 14 14 15 17 17 17 17 17 17 18 19 20 21 22 23 23 23 23
19 18 18 18 17 16 16 18 20 21 22 22 22 21 20 19 18 19 21 22 22 21 21 21 22 23 23 23 23 23 22 22 21 21 21 22 21 21 20 20 20 20 19 19 17 16 14 14 15 17 18 18 19 19 20 21 22 23 24 24 25 25 26
18 18 18 18 17 17 18 19 21 23 24 22 21 22 22 21 21 20 22 24 24 22 22 24 24 24 25 25 25 25 24 24 24 24 24 24 24 25 24 24 23 23 22 21 20 19 18 17 17 18 20 21 22 23 24 25 26 27 27 27 27 27 27
21 21 21 20 20 21 22 23 24 25 26 24 22 23 25 24 23 23 23 24 24 24 25 27 27 26 26 26 27 27 26 26 26 26 26 26 26 27 28 28 27 26 25 24 23 22 21 21 22 23 24 25 26 28 29 30 31 31 31 31 31 31 30
26 26 25 23 23 24 25 26 26 26 26 25 25 25 26 26 24 23 22 23 24 25 26 27 28 29 29 28 28 29 29 29 29 29 29 28 28 28 29 29 28 27 27 26 25 24 24 25 27 28 28 29 29 30 31 32 33 34 34 35 35 34 34
31 31 29 26 25 25 25 25 26 25 25 26 27 27 26 25 22 21 24 27 28 27 26 27 30 32 32 32 31 32 33 34 34 33 33 32 31 30 29 28 28 27 27 27 27 27 28 29 30 31 32 32 33 33 33 34 35 36 37 38 39 38 38
35 35 34 30 28 27 27 27 27 26 26 28 29 28 26 25 23 24 29 33 31 28 27 29 32 33 30 30 31 32 34 35 35 34 32 31 30 30 31 30 29 28 28 29 29 30 31 32 32 33 34 35 36 36 37 38 38 39 40 42 43 43 43
38 38 38 36 34 33 33 31 30 28 28 29 30 30 30 30 29 28 31 34 34 32 31 30 33 32 29 28 28 28 29 30 30 30 29 29 30 31 32 32 31 31 30 31 32 33 34 35 35 36 37 37 37 38 39 40 40 41 42 43 44 44 44
41 41 41 40 39 39 38 36 34 32 31 31 33 34 34 34 35 35 36 37 38 39 37 34 34 35 35 34 34 33 33 32 31 30 30 31 32 34 34 34 34 33 33 33 34 34 35 36 37 37 38 38 38 39 39 40 40 41 42 43 44 44 44
44 44 44 44 43 43 42 41 39 36 33 33 35 37 38 38 38 38 38 37 38 40 40 39 38 38 38 37 37 38 38 36 33 32 31 32 34 35 35 35 34 34 34 34 34 34 35 35 36 37 37 38 38 39 40 40 41 42 43 43 44 45 45
45 45 46 46 45 46 45 44 43 41 38 37 37 40 42 42 41 39 38 37 37 38 39 39 40 40 39 38 36 35 34 33 31 31 30 30 32 33 34 34 35 35 35 35 35 34 34 34 35 36 37 38 39 40 41 42 43 44 44 44 45 46 46
45 45 45 46 46 46 46 45 45 44 44 44 44 44 43 42 40 39 38 38 37 37 37 38 38 39 39 39 38 35 33 31 30 30 30 30 31 32 34 35 37 37 38 37 36 36 36 36 37 37 39 40 41 42 43 44 44 45 45 45 46 47 47
44 44 44 45 45 45 45 45 46 46 45 44 44 45 46 45 43 42 41 40 40 40 39 39 38 38 38 39 39 38 37 36 35 34 34 35 35 36 36 36 36 36 37 37 37 37 38 39 39 40 41 41 42 43 44 45 45 46 46 47 47 47 48
47 45 45 44 44 44 43 45 47 47 46 43 40 41 44 46 46 46 45 46 45 44 43 42 41 41 41 41 41 41 40 40 39 39 39 40 40 40 39 38 37 36 35 35 36 37 38 39 40 41 42 43 43 44 44 45 46 46 47 47 48 48 48
50 48 47 45 45 44 43 44 46 47 47 46 43 41 41 42 44 44 43 44 46 45 46 45 45 44 45 45 44 44 43 43 43 42 43 43 43 43 42 40 39 38 37 37 37 38 38 39 40 41 42 43 44 45 45 46 46 47 47 47 47 47 47
52 51 49 48 47 45 44 44 46 47 47 48 48 48 47 47 46 43 42 44 48 48 46 45 46 46 47 46 45 45 44 44 43 43 43 43 43 43 43 42 41 41 41 41 41 42 42 42 43 44 44 45 45 45 46 46 47 47 47 48 47 47 47
52 50 49 49 49 48 46 44 45 46 47 47 47 48 49 49 48 44 43 46 49 47 45 44 45 46 45 44 43 43 43 43 43 43 43 42 42 42 42 42 42 42 43 43 44 45 46 46 46 46 47 47 46 46 46 47 47 47 47 47 47 46 46
53 51 50 49 49 50 49 48 48 47 47 46 45 43 43 45 46 45 44 43 43 44 43 43 44 45 44 43 44 44 44 44 44 44 43 43 43 43 43 43 43 43 44 47 48 49 49 49 48 48 48 47 47 47 47 47 47 47 47 46 45 45 46
53 52 51 50 50 50 51 52 52 51 51 49 47 44 42 42 44 45 44 42 42 45 46 45 45 46 46 46 46 46 46 46 45 45 45 44 44 45 44 43 43 45 48 51 51 51 51 50 49 48 47 47 46 46 47 47 47 47 46 45 45 45 45
56 54 53 51 50 50 50 52 53 54 54 53 52 50 48 47 47 48 47 45 44 46 47 46 45 45 45 47 48 48 48 48 48 47 46 46 45 45 45 45 46 50 53 53 51 51 50 50 49 47 46 46 46 47 47 47 46 46 45 45 44 44 44